Sault Ste Marie, MI

5:29 PM EST on February 20, 2018 (GMT -0500)
Sault Ste Marie Municipal / Sanderson Field

Weather History for KANJ - April, 2014

Change the Weather History Date:

Friday, April 11, 2014

  Actual Average Record
Temperature  
Mean Temperature 40 °F 38 °F  
Max Temperature 52 °F 47 °F 79 °F (1945)
Min Temperature 28 °F 29 °F 4 °F (1923)
Degree Days  
Heating Degree Days 25 27  
Month to date heating degree days 343 322  
Since 1 July heating degree days 8557 7648  
Cooling Degree Days 0 0  
Month to date cooling degree days 0 0  
Year to date cooling degree days 0 0  
Moisture  
Dew Point 25 °F    
Average Humidity 58    
Maximum Humidity 85    
Minimum Humidity 30    
Precipitation  
Precipitation 0.00 in 0.08 in 0.66 in (1950)
Month to date precipitation 0.85 0.91  
Year to date precipitation 5.92 6.39  
Snow  
Snow 0.00 in 0.30 in 2.50 in (1957)
Month to date snowfall 4.4 3.4  
Since 1 July snowfall 128.7 117.0  
Snow Depth 14.00 in    
Sea Level Pressure  
Sea Level Pressure 29.93 in    
Wind  
Wind Speed 5 mph (SW)    
Max Wind Speed 16 mph    
Max Gust Speed 20 mph    
Visibility 10 miles    
Events      
T = Trace of Precipitation, MM = Missing Value Source: NWS Daily Summary

Daily Weather History Graph

Daily Weather History Graph

Search for Another Location

Airport or City:

Trip Planner

Search our weather history database for the weather conditions in past years. The results will help you decide how hot, cold, wet, or windy it might be!

Date:

Astronomy

Apr. 11, 2014 Rise Set
Actual Time 6:57 AM EDT 8:19 PM EDT
Civil Twilight 6:26 AM EDT 8:51 PM EDT
Nautical Twilight 5:49 AM EDT 9:29 PM EDT
Astronomical Twilight 5:08 AM EDT 10:09 PM EDT
Moon 4:48 PM EDT (4/11) 5:05 AM EDT (4/11)
Length of Visible Light 14h 24m
Length of Day
13h 22m
Waxing Gibbous, 87% of the Moon is Illuminated
Apr 11
Waxing Gibbous
Apr 15
Full
Apr 22
Last Quarter
Apr 29
New
May 6
First Quarter

Hourly Weather History & Observations

Time (EDT) Temp. Windchill Dew Point Humidity Pressure Visibility Wind Dir Wind Speed Gust Speed Precip Events Conditions
12:55 AM 36.0 °F 29.6 °F 27.0 °F 70% 29.83 in 10.0 mi WNW 8.1 mph - N/A   Clear
1:55 AM 34.0 °F 28.8 °F 27.0 °F 75% 29.83 in 10.0 mi West 5.8 mph - N/A   Clear
2:55 AM 34.0 °F 28.0 °F 26.1 °F 73% 29.85 in 10.0 mi WNW 6.9 mph - N/A   Clear
3:55 AM 32.0 °F 27.5 °F 26.1 °F 79% 29.87 in 10.0 mi West 4.6 mph - N/A   Clear
4:55 AM 28.9 °F - 24.1 °F 82% 29.90 in 10.0 mi Calm Calm - N/A   Clear
5:55 AM 28.0 °F - 24.1 °F 85% 29.91 in 10.0 mi Calm Calm - N/A   Clear
6:55 AM 28.0 °F - 23.0 °F 81% 29.91 in 10.0 mi Calm Calm - N/A   Clear
7:55 AM 30.0 °F 26.5 °F 27.0 °F 88% 29.94 in 10.0 mi SE 3.5 mph - N/A   Clear
8:55 AM 33.1 °F 30.0 °F 26.1 °F 75% 29.97 in 10.0 mi South 3.5 mph - N/A   Clear
9:55 AM 37.0 °F 33.3 °F 26.1 °F 65% 29.98 in 10.0 mi SE 4.6 mph - N/A   Clear
10:55 AM 39.9 °F 37.8 °F 25.0 °F 55% 29.98 in 10.0 mi SE 3.5 mph - N/A   Clear
11:55 AM 43.0 °F 38.8 °F 25.0 °F 49% 29.98 in 10.0 mi ESE 6.9 mph - N/A   Clear
12:55 PM 46.0 °F 44.8 °F 25.0 °F 44% 29.97 in 10.0 mi SE 3.5 mph - N/A   Clear
1:55 PM 50.0 °F - 21.9 °F 33% 29.95 in 10.0 mi WNW 5.8 mph - N/A   Clear
2:55 PM 51.1 °F - 21.0 °F 31% 29.93 in 10.0 mi NNW 4.6 mph - N/A   Partly Cloudy
3:55 PM 50.0 °F - 23.0 °F 35% 29.92 in 10.0 mi South 9.2 mph - N/A   Scattered Clouds
4:55 PM 48.9 °F - 21.0 °F 33% 29.91 in 10.0 mi West 6.9 mph - N/A   Scattered Clouds
5:55 PM 46.9 °F - 24.1 °F 41% 29.92 in 10.0 mi WSW 12.7 mph 17.3 mph N/A   Mostly Cloudy
6:55 PM 46.9 °F - 24.1 °F 41% 29.94 in 10.0 mi WSW 12.7 mph - N/A   Mostly Cloudy
7:55 PM 44.1 °F 39.0 °F 26.1 °F 49% 29.94 in 10.0 mi SW 9.2 mph - N/A   Clear
8:55 PM 39.0 °F 35.7 °F 26.1 °F 60% 29.96 in 10.0 mi West 4.6 mph - N/A   Clear
9:55 PM 37.0 °F 34.5 °F 27.0 °F 67% 29.97 in 10.0 mi SW 3.5 mph - N/A   Clear
10:55 PM 36.0 °F 30.3 °F 27.0 °F 70% 29.98 in 10.0 mi SSW 6.9 mph - N/A   Clear
11:55 PM 36.0 °F 30.3 °F 30.0 °F 79% 29.99 in 10.0 mi WSW 6.9 mph - N/A   Clear